Time,TemperatureF,DewpointF,PressureIn,WindDirection,WindDirectionDegrees,WindSpeedMPH,WindSpeedGustMPH,Humidity,HourlyPrecipIn,Conditions,Clouds,dailyrainin,SoftwareType,DateUTC
2013-02-01 00:00:00,30.3,19.9,29.78,NW,318,4.1,4.1,65,0.00,RA,,0.00,WeatherDisplay:10.37,2013-02-01 05:00:00,
2013-02-01 00:02:00,30.1,19.4,29.78,WNW,301,4.6,4.6,64,0.00,RA,,0.00,WeatherDisplay:10.37,2013-02-01 05:02:00,
2013-02-01 00:03:00,30.2,19.8,29.78,WNW,301,3.5,3.5,65,0.00,RA,,0.00,WeatherDisplay:10.37,2013-02-01 05:03:00,
2013-02-01 00:08:00,30.3,20.3,29.78,WNW,301,0.0,0.0,66,0.00,RA,,0.00,WeatherDisplay:10.37,2013-02-01 05:08:00,
2013-02-01 00:13:00,30.3,19.9,29.78,WNW,301,0.0,0.0,65,0.00,CLR,,0.00,WeatherDisplay:10.37,2013-02-01 05:13:00,
2013-02-01 00:18:00,30.3,19.9,29.79,SW,223,3.5,3.5,65,0.00,CLR,,0.00,WeatherDisplay:10.37,2013-02-01 05:18:00,
2013-02-01 00:23:00,30.2,20.2,29.78,SW,223,0.0,0.0,66,0.00,CLR,,0.00,WeatherDisplay:10.37,2013-02-01 05:23:00,
2013-02-01 00:28:00,29.9,19.6,29.78,SSE,162,3.2,3.2,65,0.00,CLR,,0.00,WeatherDisplay:10.37,2013-02-01 05:28:00,
2013-02-01 00:33:00,29.8,19.5,29.77,SSE,154,0.0,0.0,65,0.00,CLR,,0.00,WeatherDisplay:10.37,2013-02-01 05:33:00,
2013-02-01 00:38:00,29.6,19.6,29.77,SSE,154,0.0,0.0,66,0.00,CLR,,0.00,WeatherDisplay:10.37,2013-02-01 05:38:00,
2013-02-01 00:43:00,29.5,19.5,29.77,South,185,3.5,3.5,66,0.00,CLR,,0.00,WeatherDisplay:10.37,2013-02-01 05:43:00,
2013-02-01 00:48:00,29.5,19.2,29.77,SSE,167,2.3,2.3,65,0.00,CLR,,0.00,WeatherDisplay:10.37,2013-02-01 05:48:00,
2013-02-01 00:53:00,29.5,19.5,29.77,SSE,161,3.5,3.5,66,0.00,CLR,,0.00,WeatherDisplay:10.37,2013-02-01 05:53:00,
2013-02-01 00:58:00,29.5,19.5,29.77,SE,144,4.0,4.0,66,0.00,CLR,,0.00,WeatherDisplay:10.37,2013-02-01 05:58:00,
2013-02-01 01:03:00,29.6,19.6,29.77,SE,138,4.6,4.6,66,0.00,CLR,,0.00,WeatherDisplay:10.37,2013-02-01 06:03:00,
2013-02-01 01:08:00,29.6,20.0,29.76,SSW,192,5.8,5.8,67,0.00,CLR,,0.00,WeatherDisplay:10.37,2013-02-01 06:08:00,
2013-02-01 01:13:00,29.6,20.3,29.76,ESE,114,4.6,4.6,68,0.00,CLR,,0.00,WeatherDisplay:10.37,2013-02-01 06:13:00,
2013-02-01 01:18:00,29.5,20.6,29.77,SSW,193,2.5,2.5,69,0.00,CLR,,0.00,WeatherDisplay:10.37,2013-02-01 06:18:00,
2013-02-01 01:23:00,29.5,20.9,29.76,SSW,195,5.8,5.8,70,0.00,CLR,,0.00,WeatherDisplay:10.37,2013-02-01 06:23:00,
2013-02-01 01:28:00,29.5,20.9,29.76,South,174,2.3,2.3,70,0.00,CLR,,0.00,WeatherDisplay:10.37,2013-02-01 06:28:00,
2013-02-01 01:33:00,29.5,20.9,29.76,South,175,5.8,5.8,70,0.00,CLR,,0.00,WeatherDisplay:10.37,2013-02-01 06:33:00,
2013-02-01 01:38:00,29.5,21.3,29.75,South,184,5.8,5.8,71,0.00,CLR,,0.00,WeatherDisplay:10.37,2013-02-01 06:38:00,
2013-02-01 01:43:00,29.6,21.3,29.75,SSW,192,3.5,3.5,71,0.00,CLR,,0.00,WeatherDisplay:10.37,2013-02-01 06:43:00,
2013-02-01 01:48:00,29.6,21.3,29.75,WSW,247,2.3,0.0,71,0.00,CLR,,0.00,WeatherDisplay:10.37,2013-02-01 06:48:00,
2013-02-01 01:53:00,29.6,21.7,29.74,SSW,213,5.8,5.8,72,0.00,CLR,,0.00,WeatherDisplay:10.37,2013-02-01 06:53:00,
2013-02-01 01:58:00,29.7,21.8,29.75,WSW,256,3.5,3.5,72,0.00,CLR,,0.00,WeatherDisplay:10.37,2013-02-01 06:58:00,
2013-02-01 02:03:00,29.7,22.1,29.75,SW,230,1.1,1.1,73,0.00,CLR,,0.00,WeatherDisplay:10.37,2013-02-01 07:03:00,
2013-02-01 02:08:00,29.7,22.1,29.75,SSW,199,3.5,3.5,73,0.00,CLR,,0.00,WeatherDisplay:10.37,2013-02-01 07:08:00,
2013-02-01 02:13:00,29.6,22.3,29.74,ENE,69,8.1,8.1,74,0.00,CLR,,0.00,WeatherDisplay:10.37,2013-02-01 07:13:00,
2013-02-01 02:18:00,29.7,23.1,29.74,WSW,244,0.0,0.0,76,0.00,CLR,,0.00,WeatherDisplay:10.37,2013-02-01 07:18:00,
2013-02-01 02:23:00,29.7,22.7,29.74,South,188,3.0,3.0,75,0.00,CLR,,0.00,WeatherDisplay:10.37,2013-02-01 07:23:00,
2013-02-01 02:28:00,29.8,22.8,29.73,SW,217,3.5,3.5,75,0.00,CLR,,0.00,WeatherDisplay:10.37,2013-02-01 07:28:00,
2013-02-01 02:33:00,30.0,22.7,29.73,East,97,3.5,3.5,74,0.00,CLR,,0.00,WeatherDisplay:10.37,2013-02-01 07:33:00,
2013-02-01 02:38:00,30.2,22.9,29.73,SSE,167,0.0,0.0,74,0.00,CLR,,0.00,WeatherDisplay:10.37,2013-02-01 07:38:00,
2013-02-01 02:43:00,30.2,22.9,29.73,WSW,247,5.8,5.8,74,0.00,CLR,,0.00,WeatherDisplay:10.37,2013-02-01 07:43:00,
2013-02-01 02:48:00,30.3,23.3,29.73,SSW,210,3.5,3.5,75,0.00,CLR,,0.00,WeatherDisplay:10.37,2013-02-01 07:48:00,
2013-02-01 02:53:00,30.3,23.6,29.73,SW,229,3.5,3.5,76,0.00,CLR,,0.00,WeatherDisplay:10.37,2013-02-01 07:53:00,
2013-02-01 02:58:00,30.3,24.0,29.72,WSW,256,0.0,0.0,77,0.00,CLR,,0.00,WeatherDisplay:10.37,2013-02-01 07:58:00,
2013-02-01 03:03:00,30.1,23.8,29.72,SW,217,0.0,0.0,77,0.00,CLR,,0.00,WeatherDisplay:10.37,2013-02-01 08:03:00,
2013-02-01 03:08:00,30.0,24.0,29.72,WSW,239,0.0,0.0,78,0.00,CLR,,0.00,WeatherDisplay:10.37,2013-02-01 08:08:00,
2013-02-01 03:13:00,30.0,24.0,29.71,WNW,285,1.1,0.0,78,0.00,CLR,,0.00,WeatherDisplay:10.37,2013-02-01 08:13:00,
2013-02-01 03:18:00,30.0,24.3,29.71,WSW,244,2.1,2.1,79,0.00,CLR,,0.00,WeatherDisplay:10.37,2013-02-01 08:18:00,
2013-02-01 03:23:00,29.9,23.9,29.71,WSW,253,1.1,1.1,78,0.00,CLR,,0.00,WeatherDisplay:10.37,2013-02-01 08:23:00,
2013-02-01 03:28:00,29.9,24.2,29.72,SW,222,1.1,0.0,79,0.00,CLR,,0.00,WeatherDisplay:10.37,2013-02-01 08:28:00,
2013-02-01 03:33:00,29.7,24.9,29.72,WNW,299,2.7,2.7,82,0.00,CLR,,0.00,WeatherDisplay:10.37,2013-02-01 08:33:00,
2013-02-01 03:38:00,29.5,25.0,29.72,West,274,0.0,0.0,83,0.00,CLR,,0.00,WeatherDisplay:10.37,2013-02-01 08:38:00,
2013-02-01 03:43:00,29.5,25.3,29.72,NW,318,0.0,0.0,84,0.00,CLR,,0.00,WeatherDisplay:10.37,2013-02-01 08:43:00,
2013-02-01 03:48:00,29.5,25.8,29.72,NW,318,0.0,0.0,86,0.00,CLR,,0.00,WeatherDisplay:10.37,2013-02-01 08:48:00,
2013-02-01 03:53:00,29.3,25.9,29.72,NW,318,0.0,0.0,87,0.00,CLR,,0.00,WeatherDisplay:10.37,2013-02-01 08:53:00,
2013-02-01 03:58:00,29.3,26.2,29.72,West,275,2.3,2.3,88,0.00,CLR,,0.00,WeatherDisplay:10.37,2013-02-01 08:58:00,
2013-02-01 04:03:00,29.1,26.3,29.73,NW,326,4.7,4.7,89,0.00,CLR,,0.00,WeatherDisplay:10.37,2013-02-01 09:03:00,
2013-02-01 04:08:00,29.1,26.5,29.73,NW,319,3.9,3.9,90,0.00,CLR,,0.00,WeatherDisplay:10.37,2013-02-01 09:08:00,
2013-02-01 04:13:00,29.0,26.4,29.73,North,360,2.3,0.0,90,0.00,CLR,,0.00,WeatherDisplay:10.37,2013-02-01 09:13:00,
2013-02-01 04:18:00,28.8,26.2,29.74,North,360,0.0,0.0,90,0.00,CLR,,0.00,WeatherDisplay:10.37,2013-02-01 09:18:00,
2013-02-01 04:24:00,28.8,26.2,29.75,North,360,5.8,5.8,90,0.00,CLR,,0.00,WeatherDisplay:10.37,2013-02-01 09:24:00,
2013-02-01 04:29:00,28.8,26.2,29.75,North,360,6.9,6.9,90,0.00,CLR,,0.00,WeatherDisplay:10.37,2013-02-01 09:29:00,
2013-02-01 04:34:00,28.6,27.6,29.76,NW,316,13.1,13.1,96,0.00,CLR,,0.00,WeatherDisplay:10.37,2013-02-01 09:34:00,
2013-02-01 04:39:00,26.5,25.5,29.76,North,360,20.7,20.7,96,0.00,CLR,,0.00,WeatherDisplay:10.37,2013-02-01 09:39:00,
2013-02-01 04:44:00,26.7,25.5,29.76,North,360,0.0,0.0,95,0.00,CLR,,0.00,WeatherDisplay:10.37,2013-02-01 09:44:00,
2013-02-01 04:49:00,26.7,25.5,29.76,North,360,9.2,9.2,95,0.00,CLR,,0.00,WeatherDisplay:10.37,2013-02-01 09:49:00,
2013-02-01 04:54:00,26.8,25.3,29.77,North,360,0.0,0.0,94,0.00,CLR,,0.00,WeatherDisplay:10.37,2013-02-01 09:54:00,
2013-02-01 04:59:00,26.7,24.7,29.78,WNW,298,13.8,13.8,92,0.00,CLR,,0.00,WeatherDisplay:10.37,2013-02-01 09:59:00,
2013-02-01 05:04:00,26.6,23.3,29.79,North,360,19.6,19.6,87,0.00,CLR,,0.00,WeatherDisplay:10.37,2013-02-01 10:04:00,
2013-02-01 05:09:00,26.3,21.8,29.79,NNW,344,18.4,18.4,83,0.00,CLR,,0.00,WeatherDisplay:10.37,2013-02-01 10:09:00,
2013-02-01 05:14:00,25.5,20.2,29.79,North,356,24.2,24.2,80,0.00,CLR,,0.00,WeatherDisplay:10.37,2013-02-01 10:14:00,
2013-02-01 05:19:00,25.5,19.9,29.79,North,352,23.0,23.0,79,0.00,CLR,,0.00,WeatherDisplay:10.37,2013-02-01 10:19:00,
2013-02-01 05:24:00,25.2,19.3,29.79,North,360,16.1,16.1,78,0.00,CLR,,0.00,WeatherDisplay:10.37,2013-02-01 10:24:00,
2013-02-01 05:29:00,25.2,18.1,29.79,NNW,332,18.4,18.4,74,0.00,CLR,,0.00,WeatherDisplay:10.37,2013-02-01 10:29:00,
2013-02-01 05:34:00,25.0,17.2,29.80,North,0,15.0,15.0,72,0.00,CLR,,0.00,WeatherDisplay:10.37,2013-02-01 10:34:00,
2013-02-01 05:39:00,24.9,16.5,29.80,WNW,285,19.6,19.6,70,0.00,CLR,,0.00,WeatherDisplay:10.37,2013-02-01 10:39:00,
2013-02-01 05:44:00,24.9,15.8,29.80,North,8,20.7,20.7,68,0.00,CLR,,0.00,WeatherDisplay:10.37,2013-02-01 10:44:00,
2013-02-01 05:49:00,24.8,15.7,29.80,North,352,17.3,17.3,68,0.00,CLR,,0.00,WeatherDisplay:10.37,2013-02-01 10:49:00,
2013-02-01 05:54:00,24.6,15.5,29.80,NNW,330,20.7,20.7,68,0.00,CLR,,0.00,WeatherDisplay:10.37,2013-02-01 10:54:00,
2013-02-01 05:59:00,24.6,15.5,29.80,NNW,333,20.7,20.7,68,0.00,CLR,,0.00,WeatherDisplay:10.37,2013-02-01 10:59:00,
2013-02-01 06:04:00,24.1,13.3,29.80,North,360,28.8,28.8,63,0.00,CLR,,0.00,WeatherDisplay:10.37,2013-02-01 11:04:00,
2013-02-01 06:09:00,24.0,13.6,29.81,NW,326,27.3,27.3,64,0.00,CLR,,0.00,WeatherDisplay:10.37,2013-02-01 11:09:00,
2013-02-01 06:14:00,23.8,13.0,29.83,NW,325,23.0,23.0,63,0.00,CLR,,0.00,WeatherDisplay:10.37,2013-02-01 11:14:00,
2013-02-01 06:19:00,23.8,13.0,29.84,NW,318,20.7,20.7,63,0.00,CLR,,0.00,WeatherDisplay:10.37,2013-02-01 11:19:00,
2013-02-01 06:24:00,23.8,13.0,29.85,NNW,333,20.7,20.7,63,0.00,CLR,,0.00,WeatherDisplay:10.37,2013-02-01 11:24:00,
2013-02-01 06:29:00,23.6,12.8,29.85,North,7,19.6,19.6,63,0.00,CLR,,0.00,WeatherDisplay:10.37,2013-02-01 11:29:00,
2013-02-01 06:34:00,23.3,13.3,29.87,NW,326,17.1,17.1,65,0.00,CLR,,0.00,WeatherDisplay:10.37,2013-02-01 11:34:00,
2013-02-01 06:39:00,23.4,12.3,29.87,NW,323,26.5,26.5,62,0.00,CLR,,0.00,WeatherDisplay:10.37,2013-02-01 11:39:00,
2013-02-01 06:44:00,23.4,13.4,29.88,WNW,301,12.7,12.7,65,0.00,CLR,,0.00,WeatherDisplay:10.37,2013-02-01 11:44:00,
2013-02-01 06:49:00,23.1,13.8,29.88,NNW,332,15.0,15.0,67,0.00,CLR,,0.00,WeatherDisplay:10.37,2013-02-01 11:49:00,
2013-02-01 06:54:00,22.8,12.8,29.88,NW,322,26.5,26.5,65,0.00,CLR,,0.00,WeatherDisplay:10.37,2013-02-01 11:54:00,
2013-02-01 06:59:00,22.8,12.8,29.88,NW,318,12.7,12.7,65,0.00,CLR,,0.00,WeatherDisplay:10.37,2013-02-01 11:59:00,
2013-02-01 07:04:00,22.6,11.9,29.89,NNW,330,17.3,17.3,63,0.00,CLR,,0.00,WeatherDisplay:10.37,2013-02-01 12:04:00,
2013-02-01 07:09:00,22.6,11.9,29.89,NW,315,12.7,12.7,63,0.00,CLR,,0.00,WeatherDisplay:10.37,2013-02-01 12:09:00,
2013-02-01 07:14:00,22.2,11.1,29.90,NW,318,15.0,15.0,62,0.00,CLR,,0.00,WeatherDisplay:10.37,2013-02-01 12:14:00,
2013-02-01 07:19:00,21.9,12.3,29.90,NW,325,15.7,15.7,66,0.00,CLR,,0.00,WeatherDisplay:10.37,2013-02-01 12:19:00,
2013-02-01 07:24:00,21.7,12.4,29.91,NW,325,15.0,15.0,67,0.00,CLR,,0.00,WeatherDisplay:10.37,2013-02-01 12:24:00,
2013-02-01 07:29:00,21.5,13.2,29.92,NW,325,11.5,11.5,70,0.00,CLR,,0.00,WeatherDisplay:10.37,2013-02-01 12:29:00,
2013-02-01 07:34:00,21.0,13.7,29.93,NW,304,13.8,13.8,73,0.00,CLR,,0.00,WeatherDisplay:10.37,2013-02-01 12:34:00,
2013-02-01 07:39:00,20.4,15.2,29.93,NW,312,17.3,17.3,80,0.00,CLR,,0.00,WeatherDisplay:10.37,2013-02-01 12:39:00,
2013-02-01 07:44:00,19.8,17.1,29.94,WNW,295,16.1,16.1,89,0.00,CLR,,0.00,WeatherDisplay:10.37,2013-02-01 12:44:00,
2013-02-01 07:49:00,19.6,16.6,29.95,North,353,18.4,18.4,88,0.00,CLR,,0.00,WeatherDisplay:10.37,2013-02-01 12:49:00,
2013-02-01 07:54:00,19.5,15.7,29.95,NNW,339,15.0,15.0,85,0.00,CLR,,0.00,WeatherDisplay:10.37,2013-02-01 12:54:00,
2013-02-01 07:59:00,19.5,15.7,29.95,NNW,347,11.5,11.5,85,0.00,CLR,,0.00,WeatherDisplay:10.37,2013-02-01 12:59:00,
2013-02-01 08:04:00,19.7,14.8,29.95,NNW,332,10.4,10.4,81,0.00,CLR,,0.00,WeatherDisplay:10.37,2013-02-01 13:04:00,
2013-02-01 08:09:00,20.2,14.7,29.96,NNW,330,7.0,7.0,79,0.00,CLR,,0.00,WeatherDisplay:10.37,2013-02-01 13:09:00,
2013-02-01 08:14:00,20.3,13.9,29.97,NW,306,14.8,14.8,76,0.00,CLR,,0.00,WeatherDisplay:10.37,2013-02-01 13:14:00,
2013-02-01 08:19:00,19.8,12.2,29.97,NNW,330,17.3,17.3,72,0.00,CLR,,0.00,WeatherDisplay:10.37,2013-02-01 13:19:00,
2013-02-01 08:24:00,19.6,12.0,29.98,NW,309,15.0,15.0,72,0.00,CLR,,0.00,WeatherDisplay:10.37,2013-02-01 13:24:00,
2013-02-01 08:29:00,19.4,11.2,29.99,NW,319,21.6,21.6,70,0.00,CLR,,0.00,WeatherDisplay:10.37,2013-02-01 13:29:00,
2013-02-01 08:34:00,19.4,11.5,29.99,North,354,13.8,13.8,71,0.00,CLR,,0.00,WeatherDisplay:10.37,2013-02-01 13:34:00,
2013-02-01 08:39:00,19.1,10.6,30.00,NNW,329,11.6,11.6,69,0.00,CLR,,0.00,WeatherDisplay:10.37,2013-02-01 13:39:00,
2013-02-01 08:44:00,19.1,10.3,30.01,NNW,335,19.6,19.6,68,0.00,CLR,,0.00,WeatherDisplay:10.37,2013-02-01 13:44:00,
2013-02-01 08:49:00,18.8,9.6,30.01,WNW,294,15.0,15.0,67,0.00,CLR,,0.00,WeatherDisplay:10.37,2013-02-01 13:49:00,
2013-02-01 08:54:00,19.3,10.1,30.01,NW,312,9.2,9.2,67,0.00,CLR,,0.00,WeatherDisplay:10.37,2013-02-01 13:54:00,
2013-02-01 08:59:00,19.0,8.8,30.02,North,354,13.8,13.8,64,0.00,CLR,,0.00,WeatherDisplay:10.37,2013-02-01 13:59:00,
2013-02-01 09:04:00,19.5,10.6,30.02,NW,323,10.4,10.4,68,0.00,CLR,,0.00,WeatherDisplay:10.37,2013-02-01 14:04:00,
2013-02-01 09:09:00,19.1,8.9,30.03,North,352,13.8,13.8,64,0.00,CLR,,0.00,WeatherDisplay:10.37,2013-02-01 14:09:00,
2013-02-01 09:14:00,18.5,6.5,30.03,NW,305,20.7,20.7,59,0.00,CLR,,0.00,WeatherDisplay:10.37,2013-02-01 14:14:00,
2013-02-01 09:19:00,18.5,6.9,30.04,NNW,337,19.6,19.6,60,0.00,CLR,,0.00,WeatherDisplay:10.37,2013-02-01 14:19:00,
2013-02-01 09:24:00,18.3,6.0,30.04,NNW,332,18.4,18.4,58,0.00,CLR,,0.00,WeatherDisplay:10.37,2013-02-01 14:24:00,
2013-02-01 09:29:00,18.4,6.1,30.04,North,349,16.1,16.1,58,0.00,CLR,,0.00,WeatherDisplay:10.37,2013-02-01 14:29:00,
2013-02-01 09:35:00,18.4,5.7,30.05,North,6,15.0,15.0,57,0.00,CLR,,0.00,WeatherDisplay:10.37,2013-02-01 14:35:00,
2013-02-01 09:40:00,18.5,6.5,30.05,NNW,343,10.0,20.0,59,0.00,CLR,,0.00,WeatherDisplay:10.37,2013-02-01 14:40:00,
2013-02-01 09:45:00,18.3,6.7,30.06,North,354,10.4,10.4,60,0.00,CLR,,0.00,WeatherDisplay:10.37,2013-02-01 14:45:00,
2013-02-01 09:50:00,18.6,7.7,30.06,NNW,330,7.0,18.0,62,0.00,CLR,,0.00,WeatherDisplay:10.37,2013-02-01 14:50:00,
2013-02-01 09:55:00,17.8,5.1,30.06,NW,322,20.7,20.7,57,0.00,CLR,,0.00,WeatherDisplay:10.37,2013-02-01 14:55:00,
2013-02-01 10:00:00,17.9,5.6,30.07,NNW,339,10.0,21.0,58,0.00,CLR,,0.00,WeatherDisplay:10.37,2013-02-01 15:00:00,
2013-02-01 10:04:00,18.0,6.4,30.07,North,1,9.2,9.2,60,0.00,CLR,,0.00,WeatherDisplay:10.37,2013-02-01 15:04:00,
2013-02-01 10:10:00,18.4,6.4,30.08,North,349,5.8,5.8,59,0.00,CLR,,0.00,WeatherDisplay:10.37,2013-02-01 15:10:00,
2013-02-01 10:15:00,18.3,6.7,30.08,North,360,18.4,18.4,60,0.00,CLR,,0.00,WeatherDisplay:10.37,2013-02-01 15:15:00,
2013-02-01 10:20:00,18.5,6.9,30.08,North,351,6.0,18.0,60,0.00,CLR,,0.00,WeatherDisplay:10.37,2013-02-01 15:20:00,
2013-02-01 10:25:00,18.8,5.3,30.08,North,354,9.2,9.2,55,0.00,CLR,,0.00,WeatherDisplay:10.37,2013-02-01 15:25:00,
2013-02-01 10:30:00,18.9,6.9,30.08,NNW,345,5.0,14.0,59,0.00,CLR,,0.00,WeatherDisplay:10.37,2013-02-01 15:30:00,
2013-02-01 10:35:00,19.5,7.1,30.08,North,10,8.1,8.1,58,0.00,CLR,,0.00,WeatherDisplay:10.37,2013-02-01 15:35:00,
2013-02-01 10:40:00,19.4,7.4,30.08,NNW,343,9.2,9.2,59,0.00,CLR,,0.00,WeatherDisplay:10.37,2013-02-01 15:40:00,
2013-02-01 10:45:00,19.4,7.0,30.09,NNE,21,6.9,6.9,58,0.00,CLR,,0.00,WeatherDisplay:10.37,2013-02-01 15:45:00,
2013-02-01 10:50:00,19.0,7.0,30.09,North,351,8.0,13.0,59,0.00,CLR,,0.00,WeatherDisplay:10.37,2013-02-01 15:50:00,
2013-02-01 10:55:00,19.2,6.4,30.09,North,10,5.8,5.8,57,0.00,CLR,,0.00,WeatherDisplay:10.37,2013-02-01 15:55:00,
2013-02-01 11:00:00,18.9,8.0,30.10,NNW,329,6.0,11.0,62,0.00,CLR,,0.00,WeatherDisplay:10.37,2013-02-01 16:00:00,
2013-02-01 11:05:00,19.1,7.1,30.10,North,360,8.1,8.1,59,0.00,CLR,,0.00,WeatherDisplay:10.37,2013-02-01 16:05:00,
2013-02-01 11:10:00,19.4,6.6,30.10,NNW,337,13.8,13.8,57,0.00,CLR,,0.00,WeatherDisplay:10.37,2013-02-01 16:10:00,
2013-02-01 11:15:00,19.7,6.1,30.10,North,360,11.5,11.5,55,0.00,CLR,,0.00,WeatherDisplay:10.37,2013-02-01 16:15:00,
2013-02-01 11:20:00,19.6,6.4,30.10,North,353,7.0,13.0,56,0.00,CLR,,0.00,WeatherDisplay:10.37,2013-02-01 16:20:00,
2013-02-01 11:25:00,19.7,8.0,30.10,NNE,17,9.2,9.2,60,0.00,CLR,,0.00,WeatherDisplay:10.37,2013-02-01 16:25:00,
2013-02-01 11:30:00,19.9,7.4,30.10,North,357,6.0,13.0,58,0.00,CLR,,0.00,WeatherDisplay:10.37,2013-02-01 16:30:00,
2013-02-01 11:35:00,20.8,8.7,30.11,North,359,8.9,8.9,59,0.00,CLR,,0.00,WeatherDisplay:10.37,2013-02-01 16:35:00,
2013-02-01 11:40:00,20.3,6.7,30.11,North,351,6.0,17.0,55,0.00,CLR,,0.00,WeatherDisplay:10.37,2013-02-01 16:40:00,
2013-02-01 11:45:00,20.2,7.0,30.11,NW,308,10.4,10.4,56,0.00,CLR,,0.00,WeatherDisplay:10.37,2013-02-01 16:45:00,
2013-02-01 11:50:00,19.8,6.6,30.11,NW,320,8.0,17.0,56,0.00,CLR,,0.00,WeatherDisplay:10.37,2013-02-01 16:50:00,
2013-02-01 11:55:00,20.0,5.6,30.11,NW,311,10.4,10.4,53,0.00,CLR,,0.00,WeatherDisplay:10.37,2013-02-01 16:55:00,
2013-02-01 12:00:00,20.2,7.4,30.12,NNW,327,10.0,14.0,57,0.00,CLR,,0.00,WeatherDisplay:10.37,2013-02-01 17:00:00,
2013-02-01 12:05:00,20.6,7.0,30.11,NW,326,9.8,9.8,55,0.00,CLR,,0.00,WeatherDisplay:10.37,2013-02-01 17:05:00,
2013-02-01 12:10:00,20.4,6.0,30.12,NNW,328,8.0,15.0,53,0.00,CLR,,0.00,WeatherDisplay:10.37,2013-02-01 17:10:00,
2013-02-01 12:15:00,20.7,6.2,30.12,North,360,9.2,9.2,53,0.00,CLR,,0.00,WeatherDisplay:10.37,2013-02-01 17:15:00,
2013-02-01 12:20:00,20.3,6.3,30.11,NNW,332,10.0,17.0,54,0.00,CLR,,0.00,WeatherDisplay:10.37,2013-02-01 17:20:00,
2013-02-01 12:25:00,20.9,6.8,30.11,NW,306,15.0,15.0,54,0.00,CLR,,0.00,WeatherDisplay:10.37,2013-02-01 17:25:00,
2013-02-01 12:30:00,21.5,8.2,30.11,NNW,338,6.0,18.0,56,0.00,CLR,,0.00,WeatherDisplay:10.37,2013-02-01 17:30:00,
2013-02-01 12:35:00,21.1,6.6,30.11,NNW,339,8.1,8.1,53,0.00,CLR,,0.00,WeatherDisplay:10.37,2013-02-01 17:35:00,
2013-02-01 12:40:00,21.3,8.0,30.12,NNW,341,9.0,15.0,56,0.00,CLR,,0.00,WeatherDisplay:10.37,2013-02-01 17:40:00,
2013-02-01 12:45:00,20.7,7.1,30.11,North,352,12.7,12.7,55,0.00,CLR,,0.00,WeatherDisplay:10.37,2013-02-01 17:45:00,
2013-02-01 12:50:00,21.3,7.6,30.12,NNW,337,9.0,14.0,55,0.00,CLR,,0.00,WeatherDisplay:10.37,2013-02-01 17:50:00,
2013-02-01 12:55:00,21.3,7.2,30.11,NW,323,12.8,12.8,54,0.00,CLR,,0.00,WeatherDisplay:10.37,2013-02-01 17:55:00,
2013-02-01 13:00:00,21.7,6.7,30.12,NNW,348,1.0,15.0,52,0.00,CLR,,0.00,WeatherDisplay:10.37,2013-02-01 18:00:00,
2013-02-01 13:05:00,21.7,7.6,30.12,ESE,106,10.4,10.4,54,0.00,CLR,,0.00,WeatherDisplay:10.37,2013-02-01 18:05:00,
2013-02-01 13:10:00,22.0,7.9,30.12,North,354,8.0,13.0,54,0.00,CLR,,0.00,WeatherDisplay:10.37,2013-02-01 18:10:00,
2013-02-01 13:15:00,21.7,7.6,30.12,NNW,330,10.8,10.8,54,0.00,CLR,,0.00,WeatherDisplay:10.37,2013-02-01 18:15:00,
2013-02-01 13:20:00,21.9,6.9,30.12,NNW,336,2.0,13.0,52,0.00,CLR,,0.00,WeatherDisplay:10.37,2013-02-01 18:20:00,
2013-02-01 13:25:00,21.0,5.7,30.12,North,349,13.4,13.4,51,0.00,CLR,,0.00,WeatherDisplay:10.37,2013-02-01 18:25:00,
2013-02-01 13:30:00,21.3,6.3,30.12,NNW,327,5.0,14.0,52,0.00,CLR,,0.00,WeatherDisplay:10.37,2013-02-01 18:30:00,
2013-02-01 13:35:00,20.9,5.2,30.13,North,360,15.0,15.0,50,0.00,CLR,,0.00,WeatherDisplay:10.37,2013-02-01 18:35:00,
2013-02-01 13:40:00,21.2,6.3,30.13,ENE,75,11.5,11.5,52,0.00,CLR,,0.00,WeatherDisplay:10.37,2013-02-01 18:40:00,
2013-02-01 13:45:00,21.6,6.2,30.13,North,350,13.9,13.9,51,0.00,CLR,,0.00,WeatherDisplay:10.37,2013-02-01 18:45:00,
2013-02-01 13:50:00,21.4,7.8,30.12,North,352,5.0,18.0,55,0.00,CLR,,0.00,WeatherDisplay:10.37,2013-02-01 18:50:00,
2013-02-01 13:55:00,21.8,7.7,30.13,North,4,4.7,4.7,54,0.00,CLR,,0.00,WeatherDisplay:10.37,2013-02-01 18:55:00,
2013-02-01 14:00:00,21.0,6.9,30.13,North,352,7.0,14.0,54,0.00,CLR,,0.00,WeatherDisplay:10.37,2013-02-01 19:00:00,
2013-02-01 14:05:00,21.1,6.6,30.13,North,353,13.8,13.8,53,0.00,CLR,,0.00,WeatherDisplay:10.37,2013-02-01 19:05:00,
2013-02-01 14:10:00,21.1,7.4,30.13,NNW,344,15.0,15.0,55,0.00,CLR,,0.00,WeatherDisplay:10.37,2013-02-01 19:10:00,
2013-02-01 14:15:00,20.9,6.8,30.13,NNW,346,11.5,11.5,54,0.00,CLR,,0.00,WeatherDisplay:10.37,2013-02-01 19:15:00,
2013-02-01 14:20:00,20.6,6.6,30.14,North,0,12.7,12.7,54,0.00,CLR,,0.00,WeatherDisplay:10.37,2013-02-01 19:20:00,
2013-02-01 14:25:00,20.7,7.1,30.14,NNW,343,8.1,8.1,55,0.00,CLR,,0.00,WeatherDisplay:10.37,2013-02-01 19:25:00,
2013-02-01 14:30:00,20.9,6.4,30.14,North,11,16.1,16.1,53,0.00,CLR,,0.00,WeatherDisplay:10.37,2013-02-01 19:30:00,
2013-02-01 14:35:00,20.5,5.2,30.14,NW,322,11.5,11.5,51,0.00,CLR,,0.00,WeatherDisplay:10.37,2013-02-01 19:35:00,
2013-02-01 14:40:00,20.5,6.5,30.14,NNW,339,15.0,15.0,54,0.00,CLR,,0.00,WeatherDisplay:10.37,2013-02-01 19:40:00,
2013-02-01 14:45:00,20.7,6.2,30.14,North,352,16.1,16.1,53,0.00,CLR,,0.00,WeatherDisplay:10.37,2013-02-01 19:45:00,
2013-02-01 14:50:00,20.1,5.3,30.15,NNW,340,13.8,13.8,52,0.00,CLR,,0.00,WeatherDisplay:10.37,2013-02-01 19:50:00,
2013-02-01 14:55:00,20.6,6.2,30.15,North,356,17.3,17.3,53,0.00,CLR,,0.00,WeatherDisplay:10.37,2013-02-01 19:55:00,
2013-02-01 15:00:00,21.0,7.7,30.15,North,8,7.8,7.8,56,0.00,CLR,,0.00,WeatherDisplay:10.37,2013-02-01 20:00:00,
2013-02-01 15:05:00,20.9,6.4,30.16,North,354,10.4,10.4,53,0.00,CLR,,0.00,WeatherDisplay:10.37,2013-02-01 20:05:00,
2013-02-01 15:10:00,20.6,6.6,30.16,NNW,328,13.1,13.1,54,0.00,CLR,,0.00,WeatherDisplay:10.37,2013-02-01 20:10:00,
2013-02-01 15:15:00,20.7,6.2,30.16,North,3,8.1,8.1,53,0.00,CLR,,0.00,WeatherDisplay:10.37,2013-02-01 20:15:00,
2013-02-01 15:20:00,20.8,5.9,30.16,North,8,13.8,13.8,52,0.00,CLR,,0.00,WeatherDisplay:10.37,2013-02-01 20:20:00,
2013-02-01 15:25:00,20.6,6.6,30.17,NNW,342,13.8,13.8,54,0.00,CLR,,0.00,WeatherDisplay:10.37,2013-02-01 20:25:00,
2013-02-01 15:30:00,20.7,5.8,30.17,NNE,24,11.5,11.5,52,0.00,CLR,,0.00,WeatherDisplay:10.37,2013-02-01 20:30:00,
2013-02-01 15:35:00,21.2,6.7,30.17,North,1,9.5,9.5,53,0.00,CLR,,0.00,WeatherDisplay:10.37,2013-02-01 20:35:00,
2013-02-01 15:40:00,21.3,7.2,30.17,NNW,343,11.5,11.5,54,0.00,CLR,,0.00,WeatherDisplay:10.37,2013-02-01 20:40:00,
2013-02-01 15:45:00,20.9,6.8,30.17,NNW,346,11.5,11.5,54,0.00,CLR,,0.00,WeatherDisplay:10.37,2013-02-01 20:45:00,
2013-02-01 15:50:00,20.7,5.8,30.17,North,360,11.5,11.5,52,0.00,CLR,,0.00,WeatherDisplay:10.37,2013-02-01 20:50:00,
2013-02-01 15:55:00,20.9,6.4,30.17,NW,318,12.7,12.7,53,0.00,CLR,,0.00,WeatherDisplay:10.37,2013-02-01 20:55:00,
2013-02-01 16:00:00,21.1,7.0,30.17,North,360,11.5,11.5,54,0.00,CLR,,0.00,WeatherDisplay:10.37,2013-02-01 21:00:00,
2013-02-01 16:05:00,20.7,5.8,30.17,North,349,15.0,15.0,52,0.00,CLR,,0.00,WeatherDisplay:10.37,2013-02-01 21:05:00,
2013-02-01 16:10:00,20.8,6.3,30.18,NNW,329,15.0,15.0,53,0.00,CLR,,0.00,WeatherDisplay:10.37,2013-02-01 21:10:00,
2013-02-01 16:15:00,20.8,6.3,30.18,North,354,11.5,11.5,53,0.00,CLR,,0.00,WeatherDisplay:10.37,2013-02-01 21:15:00,
2013-02-01 16:20:00,20.3,5.0,30.18,NNW,342,15.0,15.0,51,0.00,CLR,,0.00,WeatherDisplay:10.37,2013-02-01 21:20:00,
2013-02-01 16:25:00,20.5,5.6,30.18,NNW,328,11.0,11.0,52,0.00,CLR,,0.00,WeatherDisplay:10.37,2013-02-01 21:25:00,
2013-02-01 16:30:00,20.1,6.1,30.18,North,360,11.5,11.5,54,0.00,CLR,,0.00,WeatherDisplay:10.37,2013-02-01 21:30:00,
2013-02-01 16:35:00,19.6,6.0,30.19,North,360,11.5,11.5,55,0.00,CLR,,0.00,WeatherDisplay:10.37,2013-02-01 21:35:00,
2013-02-01 16:40:00,19.5,5.5,30.19,NNW,342,12.7,12.7,54,0.00,CLR,,0.00,WeatherDisplay:10.37,2013-02-01 21:40:00,
2013-02-01 16:45:00,19.7,6.5,30.19,North,349,10.4,10.4,56,0.00,CLR,,0.00,WeatherDisplay:10.37,2013-02-01 21:45:00,
2013-02-01 16:50:00,19.6,6.0,30.19,North,6,10.4,10.4,55,0.00,CLR,,0.00,WeatherDisplay:10.37,2013-02-01 21:50:00,
2013-02-01 16:55:00,19.6,6.4,30.20,North,350,12.7,12.7,56,0.00,CLR,,0.00,WeatherDisplay:10.37,2013-02-01 21:55:00,
2013-02-01 17:00:00,19.6,6.8,30.20,North,1,3.5,0.0,57,0.00,CLR,,0.00,WeatherDisplay:10.37,2013-02-01 22:00:00,
2013-02-01 17:05:00,19.5,6.3,30.20,North,350,5.7,5.7,56,0.00,CLR,,0.00,WeatherDisplay:10.37,2013-02-01 22:05:00,
2013-02-01 17:10:00,19.4,7.0,30.20,NNE,20,5.8,5.8,58,0.00,CLR,,0.00,WeatherDisplay:10.37,2013-02-01 22:10:00,
2013-02-01 17:15:00,19.4,7.0,30.21,NNE,25,5.8,5.8,58,0.00,CLR,,0.00,WeatherDisplay:10.37,2013-02-01 22:15:00,
2013-02-01 17:21:00,19.3,6.9,30.21,NNW,343,6.9,6.9,58,0.00,CLR,,0.00,WeatherDisplay:10.37,2013-02-01 22:21:00,
2013-02-01 17:26:00,19.2,6.4,30.21,North,350,6.9,6.9,57,0.00,CLR,,0.00,WeatherDisplay:10.37,2013-02-01 22:26:00,
2013-02-01 17:31:00,19.2,6.8,30.21,NNW,346,6.9,6.9,58,0.00,CLR,,0.00,WeatherDisplay:10.37,2013-02-01 22:31:00,
2013-02-01 17:36:00,18.8,6.1,30.21,North,359,8.1,8.1,57,0.00,CLR,,0.00,WeatherDisplay:10.37,2013-02-01 22:36:00,
2013-02-01 17:41:00,18.8,6.4,30.21,NNW,339,6.9,6.9,58,0.00,CLR,,0.00,WeatherDisplay:10.37,2013-02-01 22:41:00,
2013-02-01 17:46:00,18.4,6.4,30.21,NW,311,4.6,4.6,59,0.00,CLR,,0.00,WeatherDisplay:10.37,2013-02-01 22:46:00,
2013-02-01 17:51:00,18.0,6.1,30.22,North,359,9.2,9.2,59,0.00,CLR,,0.00,WeatherDisplay:10.37,2013-02-01 22:51:00,
2013-02-01 17:56:00,17.9,6.3,30.22,North,354,5.8,5.8,60,0.00,CLR,,0.00,WeatherDisplay:10.37,2013-02-01 22:56:00,
2013-02-01 18:04:00,17.8,6.2,30.21,NNW,337,10.4,0.0,60,0.00,CLR,,0.00,WeatherDisplay:10.37,2013-02-01 23:04:00,
2013-02-01 18:09:00,17.6,6.1,30.21,NNW,340,8.1,8.1,60,0.00,CLR,,0.00,WeatherDisplay:10.37,2013-02-01 23:09:00,
2013-02-01 18:14:00,17.6,6.4,30.21,North,360,8.1,8.1,61,0.00,CLR,,0.00,WeatherDisplay:10.37,2013-02-01 23:14:00,
2013-02-01 18:19:00,17.6,6.1,30.22,North,357,6.4,6.4,60,0.00,CLR,,0.00,WeatherDisplay:10.37,2013-02-01 23:19:00,
2013-02-01 18:24:00,17.6,6.4,30.22,North,353,4.1,4.1,61,0.00,CLR,,0.00,WeatherDisplay:10.37,2013-02-01 23:24:00,
2013-02-01 18:29:00,17.8,6.2,30.22,NNW,343,2.4,2.4,60,0.00,CLR,,0.00,WeatherDisplay:10.37,2013-02-01 23:29:00,
2013-02-01 18:34:00,17.7,5.8,30.23,North,356,8.5,8.5,59,0.00,CLR,,0.00,WeatherDisplay:10.37,2013-02-01 23:34:00,
2013-02-01 18:39:00,17.6,5.7,30.23,North,354,4.6,4.6,59,0.00,CLR,,0.00,WeatherDisplay:10.37,2013-02-01 23:39:00,
2013-02-01 18:44:00,17.4,5.9,30.23,North,353,8.1,8.1,60,0.00,CLR,,0.00,WeatherDisplay:10.37,2013-02-01 23:44:00,
2013-02-01 18:49:00,17.3,5.8,30.23,North,352,5.8,5.8,60,0.00,CLR,,0.00,WeatherDisplay:10.37,2013-02-01 23:49:00,
2013-02-01 18:54:00,17.4,5.9,30.23,North,10,6.2,6.2,60,0.00,CLR,,0.00,WeatherDisplay:10.37,2013-02-01 23:54:00,
2013-02-01 18:59:00,16.9,5.8,30.24,North,360,8.1,8.1,61,0.00,CLR,,0.00,WeatherDisplay:10.37,2013-02-01 23:59:00,
2013-02-01 19:05:00,16.8,5.7,30.24,North,357,9.2,9.2,61,0.00,CLR,,0.00,WeatherDisplay:10.37,2013-02-02 00:05:00,
2013-02-01 19:10:00,16.8,6.0,30.24,NNE,27,5.8,5.8,62,0.00,CLR,,0.00,WeatherDisplay:10.37,2013-02-02 00:10:00,
2013-02-01 19:15:00,16.8,5.7,30.24,North,6,6.9,6.9,61,0.00,CLR,,0.00,WeatherDisplay:10.37,2013-02-02 00:15:00,
2013-02-01 19:20:00,16.8,5.6,30.24,North,353,3.0,8.0,61,0.00,CLR,,0.00,WeatherDisplay:10.37,2013-02-02 00:20:00,
2013-02-01 19:25:00,16.8,6.4,30.24,North,357,2.3,0.0,63,0.00,CLR,,0.00,WeatherDisplay:10.37,2013-02-02 00:25:00,
2013-02-01 19:30:00,16.8,6.4,30.24,North,0,0.0,5.0,63,0.00,CLR,,0.00,WeatherDisplay:10.37,2013-02-02 00:30:00,
2013-02-01 19:35:00,16.7,6.3,30.25,North,1,0.0,0.0,63,0.00,CLR,,0.00,WeatherDisplay:10.37,2013-02-02 00:35:00,
2013-02-01 19:40:00,16.6,6.5,30.25,North,1,0.0,0.0,64,0.00,CLR,,0.00,WeatherDisplay:10.37,2013-02-02 00:40:00,
2013-02-01 19:45:00,16.5,6.8,30.25,North,1,0.0,0.0,65,0.00,CLR,,0.00,WeatherDisplay:10.37,2013-02-02 00:45:00,
2013-02-01 19:50:00,16.4,6.7,30.25,NNE,13,1.1,0.0,65,0.00,CLR,,0.00,WeatherDisplay:10.37,2013-02-02 00:50:00,
2013-02-01 19:55:00,16.3,6.6,30.25,NNE,13,0.0,0.0,65,0.00,CLR,,0.00,WeatherDisplay:10.37,2013-02-02 00:55:00,
2013-02-01 20:00:00,16.3,6.9,30.25,NNE,13,0.0,0.0,66,0.00,CLR,,0.00,WeatherDisplay:10.37,2013-02-02 01:00:00,
2013-02-01 20:05:00,16.1,6.7,30.25,NNE,13,0.0,0.0,66,0.00,CLR,,0.00,WeatherDisplay:10.37,2013-02-02 01:05:00,
2013-02-01 20:10:00,15.9,6.5,30.25,NNE,13,0.0,0.0,66,0.00,CLR,,0.00,WeatherDisplay:10.37,2013-02-02 01:10:00,
2013-02-01 20:15:00,15.9,6.2,30.25,NNE,13,0.0,0.0,65,0.00,CLR,,0.00,WeatherDisplay:10.37,2013-02-02 01:15:00,
2013-02-01 20:20:00,15.9,6.2,30.25,NNE,13,0.0,0.0,65,0.00,CLR,,0.00,WeatherDisplay:10.37,2013-02-02 01:20:00,
2013-02-01 20:25:00,15.8,6.1,30.25,NNE,13,0.0,0.0,65,0.00,CLR,,0.00,WeatherDisplay:10.37,2013-02-02 01:25:00,
2013-02-01 20:30:00,15.7,6.7,30.25,NNE,13,0.0,0.0,67,0.00,CLR,,0.00,WeatherDisplay:10.37,2013-02-02 01:30:00,
2013-02-01 20:35:00,15.6,6.6,30.25,NNE,13,0.0,0.0,67,0.00,CLR,,0.00,WeatherDisplay:10.37,2013-02-02 01:35:00,
2013-02-01 20:40:00,15.4,6.7,30.25,NNE,13,0.0,0.0,68,0.00,CLR,,0.00,WeatherDisplay:10.37,2013-02-02 01:40:00,
2013-02-01 20:45:00,15.4,7.0,30.25,NNE,13,0.0,0.0,69,0.00,CLR,,0.00,WeatherDisplay:10.37,2013-02-02 01:45:00,
2013-02-01 20:50:00,15.3,6.6,30.25,NNE,13,0.0,0.0,68,0.00,CLR,,0.00,WeatherDisplay:10.37,2013-02-02 01:50:00,
2013-02-01 20:55:00,15.2,6.8,30.25,NNE,13,0.0,0.0,69,0.00,CLR,,0.00,WeatherDisplay:10.37,2013-02-02 01:55:00,
2013-02-01 21:00:00,15.2,7.2,30.25,NNE,13,0.0,0.0,70,0.00,CLR,,0.00,WeatherDisplay:10.37,2013-02-02 02:00:00,
2013-02-01 21:05:00,15.1,7.7,30.25,NNE,13,0.0,0.0,72,0.00,CLR,,0.00,WeatherDisplay:10.37,2013-02-02 02:05:00,
2013-02-01 21:10:00,15.1,7.7,30.25,NNE,13,0.0,0.0,72,0.00,CLR,,0.00,WeatherDisplay:10.37,2013-02-02 02:10:00,
2013-02-01 21:15:00,14.9,7.2,30.25,NNE,13,0.0,0.0,71,0.00,CLR,,0.00,WeatherDisplay:10.37,2013-02-02 02:15:00,
2013-02-01 21:20:00,14.7,7.0,30.25,NNE,13,0.0,0.0,71,0.00,CLR,,0.00,WeatherDisplay:10.37,2013-02-02 02:20:00,
2013-02-01 21:25:00,14.5,7.1,30.26,NNE,13,0.0,0.0,72,0.00,CLR,,0.00,WeatherDisplay:10.37,2013-02-02 02:25:00,
2013-02-01 21:30:00,14.3,7.5,30.25,NNE,13,0.0,0.0,74,0.00,CLR,,0.00,WeatherDisplay:10.37,2013-02-02 02:30:00,
2013-02-01 21:35:00,14.3,7.2,30.26,NNE,13,0.0,0.0,73,0.00,CLR,,0.00,WeatherDisplay:10.37,2013-02-02 02:35:00,
2013-02-01 21:40:00,14.3,7.5,30.26,NNE,13,0.0,0.0,74,0.00,CLR,,0.00,WeatherDisplay:10.37,2013-02-02 02:40:00,
2013-02-01 21:45:00,14.2,7.7,30.26,NNE,13,0.0,0.0,75,0.00,CLR,,0.00,WeatherDisplay:10.37,2013-02-02 02:45:00,
2013-02-01 21:50:00,13.9,7.4,30.26,NNE,13,0.0,0.0,75,0.00,CLR,,0.00,WeatherDisplay:10.37,2013-02-02 02:50:00,
2013-02-01 21:55:00,13.9,7.4,30.26,NNE,13,0.0,0.0,75,0.00,CLR,,0.00,WeatherDisplay:10.37,2013-02-02 02:55:00,
2013-02-01 22:00:00,13.8,7.3,30.26,NNE,13,0.0,0.0,75,0.00,CLR,,0.00,WeatherDisplay:10.37,2013-02-02 03:00:00,
2013-02-01 22:05:00,13.9,7.1,30.27,NNE,13,0.0,0.0,74,0.00,CLR,,0.00,WeatherDisplay:10.37,2013-02-02 03:05:00,
2013-02-01 22:10:00,13.9,6.8,30.26,NNE,13,0.0,0.0,73,0.00,CLR,,0.00,WeatherDisplay:10.37,2013-02-02 03:10:00,
2013-02-01 22:15:00,14.0,7.2,30.26,NNE,13,0.0,0.0,74,0.00,CLR,,0.00,WeatherDisplay:10.37,2013-02-02 03:15:00,
2013-02-01 22:20:00,14.3,7.2,30.26,NNE,13,0.0,0.0,73,0.00,CLR,,0.00,WeatherDisplay:10.37,2013-02-02 03:20:00,
2013-02-01 22:25:00,14.3,7.8,30.26,North,0,0.0,0.0,75,0.00,CLR,,0.00,WeatherDisplay:10.37,2013-02-02 03:25:00,
2013-02-01 22:30:00,14.2,8.0,30.27,North,0,0.0,0.0,76,0.00,CLR,,0.00,WeatherDisplay:10.37,2013-02-02 03:30:00,
2013-02-01 22:35:00,14.0,7.8,30.26,North,0,0.0,0.0,76,0.00,CLR,,0.00,WeatherDisplay:10.37,2013-02-02 03:35:00,
2013-02-01 22:40:00,14.0,7.5,30.27,North,0,0.0,0.0,75,0.00,CLR,,0.00,WeatherDisplay:10.37,2013-02-02 03:40:00,
2013-02-01 22:45:00,14.1,7.9,30.27,North,0,0.0,0.0,76,0.00,CLR,,0.00,WeatherDisplay:10.37,2013-02-02 03:45:00,
2013-02-01 22:50:00,14.1,8.2,30.27,North,0,0.0,0.0,77,0.00,CLR,,0.00,WeatherDisplay:10.37,2013-02-02 03:50:00,
2013-02-01 22:55:00,14.1,8.2,30.27,North,0,0.0,0.0,77,0.00,CLR,,0.00,WeatherDisplay:10.37,2013-02-02 03:55:00,
2013-02-01 23:00:00,13.9,7.1,30.27,North,0,0.0,0.0,74,0.00,CLR,,0.00,WeatherDisplay:10.37,2013-02-02 04:00:00,
2013-02-01 23:05:00,14.0,7.5,30.27,North,0,0.0,0.0,75,0.00,CLR,,0.00,WeatherDisplay:10.37,2013-02-02 04:05:00,
2013-02-01 23:10:00,14.0,7.8,30.27,North,0,0.0,0.0,76,0.00,CLR,,0.00,WeatherDisplay:10.37,2013-02-02 04:10:00,
2013-02-01 23:15:00,13.8,7.6,30.27,North,0,0.0,0.0,76,0.00,CLR,,0.00,WeatherDisplay:10.37,2013-02-02 04:15:00,
2013-02-01 23:20:00,13.8,7.9,30.27,North,0,0.0,0.0,77,0.00,CLR,,0.00,WeatherDisplay:10.37,2013-02-02 04:20:00,
2013-02-01 23:25:00,13.6,7.7,30.27,North,0,0.0,0.0,77,0.00,CLR,,0.00,WeatherDisplay:10.37,2013-02-02 04:25:00,
2013-02-01 23:30:00,13.5,7.6,30.27,North,0,0.0,0.0,77,0.00,CLR,,0.00,WeatherDisplay:10.37,2013-02-02 04:30:00,
2013-02-01 23:35:00,13.3,7.7,30.27,North,0,0.0,0.0,78,0.00,CLR,,0.00,WeatherDisplay:10.37,2013-02-02 04:35:00,
2013-02-01 23:41:00,13.2,7.9,30.27,North,0,0.0,0.0,79,0.00,CLR,,0.00,WeatherDisplay:10.37,2013-02-02 04:41:00,
2013-02-01 23:46:00,13.1,7.8,30.27,North,0,0.0,0.0,79,0.00,CLR,,0.00,WeatherDisplay:10.37,2013-02-02 04:46:00,
2013-02-01 23:51:00,13.1,8.4,30.27,North,0,0.0,0.0,81,0.00,CLR,,0.00,WeatherDisplay:10.37,2013-02-02 04:51:00,
2013-02-01 23:56:00,13.0,8.0,30.27,North,0,0.0,0.0,80,0.00,CLR,,0.00,WeatherDisplay:10.37,2013-02-02 04:56:00,